User: anonymous
Location: Caltech
(34.1382°N, 118.1253°W)
Time: 14:42:29
(UTC-07:00)
Language:

HST - Orbit

View from above orbital plane
View from above orbital plane
View from above satellite
View from above satellite

Ground track
Ground track

The orbit data is extracted from the following two-line orbital elements,

1 20580U 90037B   14202.13508213  .00000682  00000-0  34388-4 0   599
2 20580 028.4696 173.9463 0002910 291.1918 158.9522 15.05548384129836
Epoch (UTC): 21 July 2014 03:14:31
Eccentricity: 0.0002910
inclination: 28.4696°
perigee height: 548 km
apogee height: 552 km
right ascension of ascending node: 173.9463°
argument of perigee: 291.1918°
revolutions per day: 15.05548384
mean anomaly at epoch: 158.9522°
orbit number at epoch: 12983

The dashed part of the orbit path shows where the satellite is in the earth's shadow,  

DLR